CZ-3B DEB, 40167

Orbit data source: Space-Track

CZ-3B DEB, 40167 is space debris in HEO originally from a launch on Sat, 04 Sep 2010 UTC launched from the Xichang Space Center, China (XSC). Debris objects in space refer to the collection of defunct objects orbiting the Earth. Examples of debris include non-operational satellites, rocket bodies, and fragments generated from explosions, collisions, or faulty payload assembly.

Loading next visibility...
Identifier
40167, 2010-042U
Orbit
HEO
Country
Flag of CNCN / PRC
Related business
Manufacturer
CALT
Mission
Spacecraft
Bus & Motor
Unknown
Mass
Unknown
Launch date (UTC)
2010-09-04 (16 years ago)
Launch vehicle
Unknown
Launch site
Xichang Space Center, China (XSC)
Object type
Payload
Rocket body
Debris
Shape & HBR
Unknown shape, 0.2 m
Radar Cross Section
Medium (>0.1 m² and <1 m²)

Expand to show TLE details & history
Last TLE update: 4 days ago

TLE from 4 days ago
0 CZ-3B DEB
1 40167U 10042U   26232.42785837 -.00000081  00000-0  00000-0 0  9994
2 40167  26.7693 260.8732 7159641 349.9023   1.2757  1.93610817 96805
Epoch: 2026-08-20T10:16Z
TLE epoch observation values (Epoch: 2026-08-20T10:16:06.963Z)
Latitude
-0.0001°
Longitude
138.10942°
Altitude
1,413.872 km
Speed
9.362 km/s
True Right ascension
17h 23m 37s
True Declination
0° 00' 00"
Sunlit
Object was in daylight at epoch
Visualization orbit readout
Latitude
Unknown
Longitude
Unknown
Altitude
Unknown
Speed
Unknown
Apparent Right ascension
Unknown
Apparent Declination
Unknown
Sunlit
N/A
Visualization observer readout
Local Sidereal Time
00:46:28
Azimuth
Unknown
Elevation
Unknown
Doppler factor
Unknown
Orbital elements
Apogee altitude
40,288.888 km
Perigee altitude
1,346.448 km
Semi-major axis
27,195.805 km
Eccentricity
0.71596
Inclination
26.7693°
RAAN
260.8732°
Arg. of periapsis
349.9023°
True anomaly
10.98292°
Mean anomaly
1.2757°
Eccentric anomaly
4.47983°
Mean motion
0.48394 °/min
Orbital period
743.9 mins
BSTAR
0
Loading maneuver chart data...
Computing Atmospheric mass density...
Loading historical data...
Loading historical data...
Loading historical data...
Loading historical data...
Loading historical data...
Loading historical data...
Loading historical data...

Documentation

Showing up to 5 results
|